Greenville, AL

8:44 PM CDT on March 28, 2017 (GMT -0500)
Greenville Municipal

Weather History for KPRN - February, 2015

Change the Weather History Date:

Tuesday, February 3, 2015

  Actual Average Record
Temperature  
Mean Temperature 39 °F -  
Max Temperature 50 °F 59 °F 82 °F (1957)
Min Temperature 28 °F 37 °F 11 °F (1951)
Degree Days  
Heating Degree Days 26    
Moisture  
Dew Point 25 °F    
Average Humidity 62    
Maximum Humidity 85    
Minimum Humidity 33    
Precipitation  
Precipitation 0.00 in - - ()
Sea Level Pressure  
Sea Level Pressure 30.31 in    
Wind  
Wind Speed 3 mph (NNE)    
Max Wind Speed 8 mph    
Max Gust Speed -    
Visibility 10 miles    
Events      
Averages and records for this station are not official NWS values.
T = Trace of Precipitation, MM = Missing Value Source: NWS Daily Summary

Daily Weather History Graph

Daily Weather History Graph

Search for Another Location

Airport or City:

Trip Planner

Search our weather history database for the weather conditions in past years. The results will help you decide how hot, cold, wet, or windy it might be!

Date:

Astronomy

Feb. 03, 2015 Rise Set
Actual Time 6:38 AM CST 5:22 PM CST
Civil Twilight 6:13 AM CST 5:47 PM CST
Nautical Twilight 5:43 AM CST 6:16 PM CST
Astronomical Twilight 5:15 AM CST 6:45 PM CST
Moon 5:24 PM CST (2/3) 6:08 AM CST (2/3)
Length of Visible Light 11h 34m
Length of Day
10h 43m
Full, 100% of the Moon is Illuminated
Feb 3
Full
Feb 3
Full
Feb 11
Last Quarter
Feb 18
New
Feb 25
First Quarter

Hourly Weather History & Observations

Time (CST) Temp. Windchill Dew Point Humidity Pressure Visibility Wind Dir Wind Speed Gust Speed Precip Events Conditions
12:56 AM 30.0 °F 26.5 °F 24.1 °F 79% 30.30 in 10.0 mi North 3.5 mph - N/A   Clear
1:56 AM 28.9 °F - 23.0 °F 78% 30.31 in 10.0 mi Calm Calm - N/A   Clear
2:56 AM 28.0 °F 24.2 °F 24.1 °F 85% 30.30 in 10.0 mi North 3.5 mph - N/A   Clear
3:56 AM 28.9 °F 22.8 °F 21.9 °F 75% 30.30 in 10.0 mi North 5.8 mph - N/A   Clear
4:56 AM 28.9 °F - 23.0 °F 78% 30.30 in 10.0 mi Calm Calm - N/A   Clear
5:56 AM 28.9 °F 25.2 °F 23.0 °F 78% 30.33 in 10.0 mi North 3.5 mph - N/A   Clear
6:56 AM 28.9 °F - 23.0 °F 78% 30.34 in 10.0 mi Calm Calm - N/A   Clear
7:56 AM 32.0 °F 27.5 °F 24.1 °F 73% 30.35 in 10.0 mi NE 4.6 mph - N/A   Clear
8:56 AM 35.1 °F 30.1 °F 24.1 °F 64% 30.37 in 10.0 mi ENE 5.8 mph - N/A   Clear
9:56 AM 39.0 °F 35.7 °F 25.0 °F 57% 30.38 in 10.0 mi East 4.6 mph - N/A   Clear
10:56 AM 44.1 °F - 23.0 °F 43% 30.36 in 10.0 mi Calm Calm - N/A   Clear
11:56 AM 46.9 °F - 21.9 °F 37% 30.34 in 10.0 mi Variable 3.5 mph - N/A   Clear
12:56 PM 48.9 °F - 21.0 °F 33% 30.31 in 10.0 mi North 8.1 mph - N/A   Clear
1:56 PM 50.0 °F - 23.0 °F 35% 30.29 in 10.0 mi Calm Calm - N/A   Clear
2:56 PM 50.0 °F - 23.0 °F 35% 30.29 in 10.0 mi NE 4.6 mph - N/A   Clear
3:56 PM 48.9 °F - 24.1 °F 38% 30.28 in 10.0 mi NNE 5.8 mph - N/A   Clear
4:56 PM 48.0 °F - 25.0 °F 41% 30.29 in 10.0 mi NNE 4.6 mph - N/A   Clear
5:56 PM 46.0 °F - 25.0 °F 44% 30.30 in 10.0 mi Calm Calm - N/A   Clear
6:56 PM 43.0 °F - 30.9 °F 62% 30.31 in 10.0 mi Calm Calm - N/A   Clear
7:56 PM 39.9 °F - 32.0 °F 73% 30.31 in 10.0 mi Calm Calm - N/A   Clear
8:56 PM 39.9 °F - 32.0 °F 73% 30.32 in 10.0 mi Calm Calm - N/A   Clear
9:56 PM 37.0 °F - 32.0 °F 82% 30.31 in 10.0 mi Calm Calm - N/A   Clear
10:56 PM 36.0 °F 33.3 °F 30.9 °F 82% 30.30 in 10.0 mi North 3.5 mph - N/A   Clear
11:56 PM 37.9 °F - 30.9 °F 76% 30.27 in 10.0 mi Calm Calm - N/A   Clear